Year,Month,Day,Hour,Minute,Value (Times are PST for windgust in km/hr)
2019,09,16,00,03,4.80
2019,09,16,00,04,4.80
2019,09,16,00,05,4.80
2019,09,16,00,06,4.80
2019,09,16,00,07,4.80
2019,09,16,00,08,3.20
2019,09,16,00,09,3.20
2019,09,16,00,10,3.20
2019,09,16,00,11,4.80
2019,09,16,00,12,4.80
2019,09,16,00,13,4.80
2019,09,16,00,14,4.80
2019,09,16,00,15,4.80
2019,09,16,00,16,4.80
2019,09,16,00,17,3.20
2019,09,16,00,18,3.20
2019,09,16,00,19,1.60
2019,09,16,00,20,1.60
2019,09,16,00,21,1.60
2019,09,16,00,23,1.60
2019,09,16,00,24,3.20
2019,09,16,00,25,3.20
2019,09,16,00,26,1.60
2019,09,16,02,49,1.60
2019,09,16,02,50,3.20
2019,09,16,02,51,3.20
2019,09,16,02,52,3.20
2019,09,16,02,53,3.20
2019,09,16,02,54,1.60
2019,09,16,02,55,1.60
2019,09,16,02,56,3.20
2019,09,16,02,57,4.80
2019,09,16,02,58,4.80
2019,09,16,02,59,3.20
2019,09,16,03,00,3.20
2019,09,16,03,01,4.80
2019,09,16,03,02,4.80
2019,09,16,03,03,4.80
2019,09,16,03,04,3.20
2019,09,16,03,05,4.80
2019,09,16,03,06,3.20
2019,09,16,03,07,3.20
2019,09,16,03,08,3.20
2019,09,16,03,09,3.20
2019,09,16,03,10,3.20
2019,09,16,03,11,3.20
2019,09,16,03,12,1.60
2019,09,16,03,13,1.60
2019,09,16,03,14,3.20
2019,09,16,03,15,3.20
2019,09,16,03,16,3.20
2019,09,16,03,17,4.80
2019,09,16,03,18,3.20
2019,09,16,03,19,1.60
2019,09,16,03,20,3.20
2019,09,16,03,21,1.60
2019,09,16,03,22,1.60
2019,09,16,03,23,3.20
2019,09,16,03,24,4.80
2019,09,16,03,25,6.40
2019,09,16,03,26,6.40
2019,09,16,03,27,6.40
2019,09,16,03,28,6.40
2019,09,16,03,29,4.80
2019,09,16,03,30,6.40
2019,09,16,03,31,6.40
2019,09,16,03,32,6.40
2019,09,16,03,33,6.40
2019,09,16,03,34,6.40
2019,09,16,03,35,8.10
2019,09,16,03,36,6.40
2019,09,16,03,37,4.80
2019,09,16,03,38,4.80
2019,09,16,03,39,6.40
2019,09,16,03,40,4.80
2019,09,16,03,41,4.80
2019,09,16,03,42,4.80
2019,09,16,03,43,4.80
2019,09,16,03,44,3.20
2019,09,16,03,45,3.20
2019,09,16,03,46,4.80
2019,09,16,03,47,3.20
2019,09,16,03,48,3.20
2019,09,16,03,49,3.20
2019,09,16,03,50,3.20
2019,09,16,03,51,3.20
2019,09,16,03,52,1.60
2019,09,16,03,53,3.20
2019,09,16,03,54,3.20
2019,09,16,03,55,4.80
2019,09,16,03,56,4.80
2019,09,16,03,57,4.80
2019,09,16,03,58,4.80
2019,09,16,03,59,4.80
2019,09,16,04,00,4.80
2019,09,16,04,01,6.40
2019,09,16,04,02,4.80
2019,09,16,04,03,4.80
2019,09,16,04,04,4.80
2019,09,16,04,05,4.80
2019,09,16,04,06,4.80
2019,09,16,04,07,4.80
2019,09,16,04,08,3.20
2019,09,16,04,09,3.20
2019,09,16,04,10,3.20
2019,09,16,04,11,3.20
2019,09,16,04,12,3.20
2019,09,16,04,13,3.20
2019,09,16,04,14,3.20
2019,09,16,04,15,3.20
2019,09,16,04,16,3.20
2019,09,16,04,17,3.20
2019,09,16,04,18,3.20
2019,09,16,04,19,3.20
2019,09,16,04,20,3.20
2019,09,16,04,21,3.20
2019,09,16,04,22,3.20
2019,09,16,04,23,3.20
2019,09,16,04,24,3.20
2019,09,16,04,25,3.20
2019,09,16,04,26,3.20
2019,09,16,04,27,3.20
2019,09,16,04,28,4.80
2019,09,16,04,29,4.80
2019,09,16,04,30,3.20
2019,09,16,04,31,3.20
2019,09,16,04,32,3.20
2019,09,16,04,33,4.80
2019,09,16,04,34,4.80
2019,09,16,04,35,4.80
2019,09,16,04,36,4.80
2019,09,16,04,37,4.80
2019,09,16,04,38,4.80
2019,09,16,04,39,4.80
2019,09,16,04,40,3.20
2019,09,16,04,41,3.20
2019,09,16,04,42,3.20
2019,09,16,04,43,3.20
2019,09,16,04,44,1.60
2019,09,16,04,45,1.60
2019,09,16,04,46,1.60
2019,09,16,04,47,1.60
2019,09,16,04,48,3.20
2019,09,16,04,49,3.20
2019,09,16,04,50,3.20
2019,09,16,04,51,4.80
2019,09,16,04,52,4.80
2019,09,16,04,53,6.40
2019,09,16,04,54,6.40
2019,09,16,04,55,4.80
2019,09,16,04,56,4.80
2019,09,16,04,57,4.80
2019,09,16,04,58,6.40
2019,09,16,04,59,6.40
2019,09,16,05,00,6.40
2019,09,16,05,01,6.40
2019,09,16,05,02,8.10
2019,09,16,05,03,8.10
2019,09,16,05,04,8.10
2019,09,16,05,05,8.10
2019,09,16,05,06,8.10
2019,09,16,05,07,8.10
2019,09,16,05,08,8.10
2019,09,16,05,09,8.10
2019,09,16,05,10,8.10
2019,09,16,05,11,8.10
2019,09,16,05,12,8.10
2019,09,16,05,13,8.10
2019,09,16,05,14,6.40
2019,09,16,05,15,6.40
2019,09,16,05,16,6.40
2019,09,16,05,17,8.10
2019,09,16,05,18,9.60
2019,09,16,05,19,9.60
2019,09,16,05,20,9.60
2019,09,16,05,21,9.60
2019,09,16,05,22,9.60
2019,09,16,05,23,12.90
2019,09,16,05,24,12.90
2019,09,16,05,25,9.60
2019,09,16,05,26,9.60
2019,09,16,05,27,12.90
2019,09,16,05,28,9.60
2019,09,16,05,29,8.10
2019,09,16,05,30,9.60
2019,09,16,05,31,8.10
2019,09,16,05,32,9.60
2019,09,16,05,33,9.60
2019,09,16,05,34,9.60
2019,09,16,05,35,9.60
2019,09,16,05,36,12.90
2019,09,16,05,37,9.60
2019,09,16,05,38,12.90
2019,09,16,05,39,8.10
2019,09,16,05,40,9.60
2019,09,16,05,41,12.90
2019,09,16,05,42,14.50
2019,09,16,05,43,16.10
2019,09,16,05,44,14.50
2019,09,16,05,45,14.50
2019,09,16,05,46,12.90
2019,09,16,05,47,14.50
2019,09,16,05,48,14.50
2019,09,16,05,49,12.90
2019,09,16,05,50,9.60
2019,09,16,05,51,8.10
2019,09,16,05,52,8.10
2019,09,16,05,53,8.10
2019,09,16,05,54,9.60
2019,09,16,05,55,8.10
2019,09,16,05,56,6.40
2019,09,16,05,57,6.40
2019,09,16,05,58,8.10
2019,09,16,05,59,9.60
2019,09,16,06,00,8.10
2019,09,16,06,01,8.10
2019,09,16,06,02,8.10
2019,09,16,06,03,6.40
2019,09,16,06,04,6.40
2019,09,16,06,05,6.40
2019,09,16,06,06,4.80
2019,09,16,06,07,4.80
2019,09,16,06,08,3.20
2019,09,16,06,09,4.80
2019,09,16,06,10,4.80
2019,09,16,06,11,4.80
2019,09,16,06,12,4.80
2019,09,16,06,13,4.80
2019,09,16,06,14,4.80
2019,09,16,06,15,4.80
2019,09,16,06,16,4.80
2019,09,16,06,17,4.80
2019,09,16,06,18,4.80
2019,09,16,06,19,4.80
2019,09,16,06,20,4.80
2019,09,16,06,21,4.80
2019,09,16,06,22,4.80
2019,09,16,06,23,4.80
2019,09,16,06,24,4.80
2019,09,16,06,25,6.40
2019,09,16,06,26,4.80
2019,09,16,06,27,4.80
2019,09,16,06,28,4.80
2019,09,16,06,29,4.80
2019,09,16,06,30,4.80
2019,09,16,06,31,4.80
2019,09,16,06,32,3.20
2019,09,16,06,33,3.20
2019,09,16,06,34,3.20
2019,09,16,06,35,3.20
2019,09,16,06,36,6.40
2019,09,16,06,37,6.40
2019,09,16,06,38,6.40
2019,09,16,06,39,6.40
2019,09,16,06,40,6.40
2019,09,16,06,41,6.40
2019,09,16,06,42,4.80
2019,09,16,06,43,4.80
2019,09,16,06,44,4.80
2019,09,16,06,45,4.80
2019,09,16,06,46,6.40
2019,09,16,06,47,4.80
2019,09,16,06,48,6.40
2019,09,16,06,49,6.40
2019,09,16,06,50,6.40
2019,09,16,06,51,4.80
2019,09,16,06,52,4.80
2019,09,16,06,53,6.40
2019,09,16,06,54,6.40
2019,09,16,06,55,6.40
2019,09,16,06,56,4.80
2019,09,16,06,57,4.80
2019,09,16,06,58,3.20
2019,09,16,06,59,4.80
2019,09,16,07,00,4.80
2019,09,16,07,01,6.40
2019,09,16,07,02,4.80
2019,09,16,07,03,6.40
2019,09,16,07,04,4.80
2019,09,16,07,05,4.80
2019,09,16,07,06,4.80
2019,09,16,07,07,6.40
2019,09,16,07,08,6.40
2019,09,16,07,09,4.80
2019,09,16,07,10,6.40
2019,09,16,07,11,4.80
2019,09,16,07,12,6.40
2019,09,16,07,13,8.10
2019,09,16,07,14,8.10
2019,09,16,07,15,6.40
2019,09,16,07,16,8.10
2019,09,16,07,17,9.60
2019,09,16,07,18,8.10
2019,09,16,07,19,8.10
2019,09,16,07,20,9.60
2019,09,16,07,21,9.60
2019,09,16,07,22,8.10
2019,09,16,07,23,9.60
2019,09,16,07,24,8.10
2019,09,16,07,25,8.10
2019,09,16,07,26,8.10
2019,09,16,07,27,6.40
2019,09,16,07,28,6.40
2019,09,16,07,29,8.10
2019,09,16,07,30,6.40
2019,09,16,07,31,8.10
2019,09,16,07,32,8.10
2019,09,16,07,33,8.10
2019,09,16,07,34,11.30
2019,09,16,07,35,11.30
2019,09,16,07,36,11.30
2019,09,16,07,37,11.30
2019,09,16,07,38,11.30
2019,09,16,07,39,12.90
2019,09,16,07,40,11.30
2019,09,16,07,41,11.30
2019,09,16,07,42,11.30
2019,09,16,07,43,11.30
2019,09,16,07,44,12.90
2019,09,16,07,45,12.90
2019,09,16,07,46,8.10
2019,09,16,07,47,11.30
2019,09,16,07,48,8.10
2019,09,16,07,49,8.10
2019,09,16,07,50,8.10
2019,09,16,07,51,8.10
2019,09,16,07,52,6.40
2019,09,16,07,53,6.40
2019,09,16,07,54,4.80
2019,09,16,07,55,6.40
2019,09,16,07,56,8.10
2019,09,16,07,57,8.10
2019,09,16,07,58,6.40
2019,09,16,07,59,6.40
2019,09,16,08,00,4.80
2019,09,16,08,01,4.80
2019,09,16,08,02,4.80
2019,09,16,08,03,6.40
2019,09,16,08,04,4.80
2019,09,16,08,05,8.10
2019,09,16,08,06,6.40
2019,09,16,08,07,8.10
2019,09,16,08,08,8.10
2019,09,16,08,09,9.60
2019,09,16,08,10,9.60
2019,09,16,08,11,9.60
2019,09,16,08,12,9.60
2019,09,16,08,13,8.10
2019,09,16,08,14,6.40
2019,09,16,08,15,8.10
2019,09,16,08,16,9.60
2019,09,16,08,17,8.10
2019,09,16,08,18,8.10
2019,09,16,08,19,8.10
2019,09,16,08,20,8.10
2019,09,16,08,21,8.10
2019,09,16,08,22,8.10
2019,09,16,08,23,8.10
2019,09,16,08,24,9.60
2019,09,16,08,25,9.60
2019,09,16,08,26,8.10
2019,09,16,08,27,8.10
2019,09,16,08,28,8.10
2019,09,16,08,29,6.40
2019,09,16,08,30,8.10
2019,09,16,08,31,9.60
2019,09,16,08,32,9.60
2019,09,16,08,33,8.10
2019,09,16,08,34,8.10
2019,09,16,08,35,6.40
2019,09,16,08,36,6.40
2019,09,16,08,37,6.40
2019,09,16,08,38,6.40
2019,09,16,08,39,6.40
2019,09,16,08,40,4.80
2019,09,16,08,41,4.80
2019,09,16,08,42,3.20
2019,09,16,08,43,3.20
2019,09,16,08,44,1.60
2019,09,16,08,50,1.60
2019,09,16,08,51,4.80
2019,09,16,08,52,4.80
2019,09,16,08,53,4.80
2019,09,16,08,54,3.20
2019,09,16,08,55,1.60
2019,09,16,09,03,3.20
2019,09,16,09,04,3.20
2019,09,16,09,05,4.80
2019,09,16,09,06,3.20
2019,09,16,09,07,1.60
2019,09,16,09,13,1.60
2019,09,16,09,14,1.60
2019,09,16,09,56,3.20
2019,09,16,09,57,6.40
2019,09,16,09,58,6.40
2019,09,16,09,59,6.40
2019,09,16,10,00,6.40
2019,09,16,10,01,9.60
2019,09,16,10,02,9.60
2019,09,16,10,03,6.40
2019,09,16,10,04,9.60
2019,09,16,10,05,9.60
2019,09,16,10,06,12.90
2019,09,16,10,07,9.60
2019,09,16,10,08,9.60
2019,09,16,10,09,9.60
2019,09,16,10,10,9.60
2019,09,16,10,11,8.10
2019,09,16,10,12,8.10
2019,09,16,10,13,6.40
2019,09,16,10,14,6.40
2019,09,16,10,15,8.10
2019,09,16,10,16,8.10
2019,09,16,10,17,8.10
2019,09,16,10,18,6.40
2019,09,16,10,19,8.10
2019,09,16,10,20,8.10
2019,09,16,10,21,6.40
2019,09,16,10,22,6.40
2019,09,16,10,23,4.80
2019,09,16,10,24,6.40
2019,09,16,10,25,8.10
2019,09,16,10,26,6.40
2019,09,16,10,27,4.80
2019,09,16,10,28,8.10
2019,09,16,10,29,6.40
2019,09,16,10,30,4.80
2019,09,16,10,31,4.80
2019,09,16,10,32,6.40
2019,09,16,10,33,8.10
2019,09,16,10,34,6.40
2019,09,16,10,35,6.40
2019,09,16,10,36,11.30
2019,09,16,10,37,8.10
2019,09,16,10,38,8.10
2019,09,16,10,39,11.30
2019,09,16,10,40,8.10
2019,09,16,10,41,8.10
2019,09,16,10,42,11.30
2019,09,16,10,43,11.30
2019,09,16,10,44,11.30
2019,09,16,10,45,11.30
2019,09,16,10,46,9.60
2019,09,16,10,47,9.60
2019,09,16,10,48,8.10
2019,09,16,10,49,8.10
2019,09,16,10,50,8.10
2019,09,16,10,51,9.60
2019,09,16,10,52,11.30
2019,09,16,10,53,16.10
2019,09,16,10,54,11.30
2019,09,16,10,55,8.10
2019,09,16,10,56,9.60
2019,09,16,10,57,14.50
2019,09,16,10,58,11.30
2019,09,16,10,59,11.30
2019,09,16,11,00,12.90
2019,09,16,11,01,12.90
2019,09,16,11,02,9.60
2019,09,16,11,03,12.90
2019,09,16,11,04,9.60
2019,09,16,11,05,9.60
2019,09,16,11,06,8.10
2019,09,16,11,07,14.50
2019,09,16,11,08,12.90
2019,09,16,11,09,9.60
2019,09,16,11,10,12.90
2019,09,16,11,11,14.50
2019,09,16,11,12,9.60
2019,09,16,11,13,9.60
2019,09,16,11,14,16.10
2019,09,16,11,15,14.50
2019,09,16,11,16,8.10
2019,09,16,11,17,12.90
2019,09,16,11,18,14.50
2019,09,16,11,19,11.30
2019,09,16,11,20,9.60
2019,09,16,11,21,6.40
2019,09,16,11,22,8.10
2019,09,16,11,23,11.30
2019,09,16,11,24,12.90
2019,09,16,11,25,12.90
2019,09,16,11,26,11.30
2019,09,16,11,27,11.30
2019,09,16,11,28,8.10
2019,09,16,11,29,11.30
2019,09,16,11,30,12.90
2019,09,16,11,31,12.90
2019,09,16,11,32,9.60
2019,09,16,11,33,11.30
2019,09,16,11,34,8.10
2019,09,16,11,35,8.10
2019,09,16,11,36,8.10
2019,09,16,11,37,6.40
2019,09,16,11,38,8.10
2019,09,16,11,39,11.30
2019,09,16,11,40,8.10
2019,09,16,11,41,8.10
2019,09,16,11,42,11.30
2019,09,16,11,43,11.30
2019,09,16,11,44,11.30
2019,09,16,11,45,12.90
2019,09,16,11,46,12.90
2019,09,16,11,47,12.90
2019,09,16,11,48,11.30
2019,09,16,11,49,8.10
2019,09,16,11,50,8.10
2019,09,16,11,51,11.30
2019,09,16,11,52,12.90
2019,09,16,11,53,12.90
2019,09,16,11,54,14.50
2019,09,16,11,55,16.10
2019,09,16,11,56,12.90
2019,09,16,11,57,11.30
2019,09,16,11,58,12.90
2019,09,16,11,59,12.90
2019,09,16,12,00,11.30
2019,09,16,12,01,12.90
2019,09,16,12,02,14.50
2019,09,16,12,03,12.90
2019,09,16,12,04,14.50
2019,09,16,12,05,14.50
2019,09,16,12,06,14.50
2019,09,16,12,07,12.90
2019,09,16,12,08,14.50
2019,09,16,12,09,8.10
2019,09,16,12,10,8.10
2019,09,16,12,11,14.50
2019,09,16,12,12,14.50
2019,09,16,12,13,12.90
2019,09,16,12,14,12.90
2019,09,16,12,15,9.60
2019,09,16,12,16,12.90
2019,09,16,12,17,8.10
2019,09,16,12,18,8.10
2019,09,16,12,19,11.30
2019,09,16,12,20,11.30
2019,09,16,12,21,11.30
2019,09,16,12,22,8.10
2019,09,16,12,23,6.40
2019,09,16,12,24,4.80
2019,09,16,12,25,4.80
2019,09,16,12,26,11.30
2019,09,16,12,27,6.40
2019,09,16,12,28,6.40
2019,09,16,12,29,6.40
2019,09,16,12,30,9.60
2019,09,16,12,31,8.10
2019,09,16,12,32,8.10
2019,09,16,12,33,9.60
2019,09,16,12,34,8.10
2019,09,16,12,35,4.80
2019,09,16,12,36,6.40
2019,09,16,12,37,6.40
2019,09,16,12,38,8.10
2019,09,16,12,39,8.10
2019,09,16,12,40,4.80
2019,09,16,12,41,8.10
2019,09,16,12,42,6.40
2019,09,16,12,43,4.80
2019,09,16,12,44,4.80
2019,09,16,12,45,6.40
2019,09,16,12,46,6.40
2019,09,16,12,47,4.80
2019,09,16,12,48,4.80
2019,09,16,12,49,8.10
2019,09,16,12,50,8.10
2019,09,16,12,51,8.10
2019,09,16,12,52,8.10
2019,09,16,12,53,8.10
2019,09,16,12,54,9.60
2019,09,16,12,55,9.60
2019,09,16,12,56,9.60
2019,09,16,12,57,8.10
2019,09,16,12,58,9.60
2019,09,16,12,59,9.60
2019,09,16,13,00,11.30
2019,09,16,13,01,9.60
2019,09,16,13,02,11.30
2019,09,16,13,03,8.10
2019,09,16,13,04,12.90
2019,09,16,13,05,9.60
2019,09,16,13,06,9.60
2019,09,16,13,07,8.10
2019,09,16,13,08,8.10
2019,09,16,13,09,6.40
2019,09,16,13,10,4.80
2019,09,16,13,11,9.60
2019,09,16,13,12,14.50
2019,09,16,13,13,14.50
2019,09,16,13,14,16.10
2019,09,16,13,15,16.10
2019,09,16,13,16,16.10
2019,09,16,13,17,16.10
2019,09,16,13,18,14.50
2019,09,16,13,19,14.50
2019,09,16,13,20,14.50
2019,09,16,13,21,14.50
2019,09,16,13,22,14.50
2019,09,16,13,23,14.50
2019,09,16,13,24,16.10
2019,09,16,13,25,16.10
2019,09,16,13,26,17.70
2019,09,16,13,27,16.10
2019,09,16,13,28,16.10
2019,09,16,13,29,16.10
2019,09,16,13,30,16.10
2019,09,16,13,31,14.50
2019,09,16,13,32,14.50
2019,09,16,13,33,14.50
2019,09,16,13,34,14.50
2019,09,16,13,35,12.90
2019,09,16,13,36,12.90
2019,09,16,13,37,12.90
2019,09,16,13,38,12.90
2019,09,16,13,39,12.90
2019,09,16,13,40,12.90
2019,09,16,13,41,12.90
2019,09,16,13,42,12.90
2019,09,16,13,43,12.90
2019,09,16,13,44,12.90
2019,09,16,13,45,14.50
2019,09,16,13,46,12.90
2019,09,16,13,47,12.90
2019,09,16,13,48,12.90
2019,09,16,13,49,11.30
2019,09,16,13,50,11.30
2019,09,16,13,51,11.30
2019,09,16,13,52,8.10
2019,09,16,13,53,11.30
2019,09,16,13,54,11.30
2019,09,16,13,55,14.50
2019,09,16,13,56,12.90
2019,09,16,13,57,12.90
2019,09,16,13,58,12.90
2019,09,16,13,59,8.10
2019,09,16,14,00,11.30
2019,09,16,14,01,11.30
2019,09,16,14,02,11.30
2019,09,16,14,03,12.90
2019,09,16,14,04,12.90
2019,09,16,14,05,12.90
2019,09,16,14,06,12.90
2019,09,16,14,07,12.90
2019,09,16,14,08,12.90
2019,09,16,14,09,12.90
2019,09,16,14,10,14.50
2019,09,16,14,11,12.90
2019,09,16,14,12,12.90
2019,09,16,14,13,11.30
2019,09,16,14,14,11.30
2019,09,16,14,15,11.30
2019,09,16,14,16,11.30
2019,09,16,14,17,11.30
2019,09,16,14,18,12.90
2019,09,16,14,19,11.30
2019,09,16,14,20,11.30
2019,09,16,14,21,11.30
2019,09,16,14,22,8.10
2019,09,16,14,23,8.10
2019,09,16,14,24,8.10
2019,09,16,14,25,8.10
2019,09,16,14,26,4.80
2019,09,16,14,27,8.10
2019,09,16,14,28,6.40
2019,09,16,14,29,8.10
2019,09,16,14,30,8.10
2019,09,16,14,31,11.30
2019,09,16,14,32,11.30
2019,09,16,14,33,11.30
2019,09,16,14,34,12.90
2019,09,16,14,35,12.90
2019,09,16,14,36,11.30
2019,09,16,14,37,11.30
2019,09,16,14,38,11.30
2019,09,16,14,39,11.30
2019,09,16,14,40,11.30
2019,09,16,14,41,11.30
2019,09,16,14,42,11.30
2019,09,16,14,43,8.10
2019,09,16,14,44,8.10
2019,09,16,14,45,6.40
2019,09,16,14,46,6.40
2019,09,16,14,47,4.80
2019,09,16,14,48,4.80
2019,09,16,14,49,6.40
2019,09,16,14,50,6.40
2019,09,16,14,51,12.90
2019,09,16,14,52,12.90
2019,09,16,14,53,12.90
2019,09,16,14,54,12.90
2019,09,16,14,55,14.50
2019,09,16,14,56,14.50
2019,09,16,14,57,12.90
2019,09,16,14,58,12.90
2019,09,16,14,59,11.30
2019,09,16,15,00,11.30
2019,09,16,15,01,11.30
2019,09,16,15,02,12.90
2019,09,16,15,03,8.10
2019,09,16,15,04,11.30
2019,09,16,15,05,8.10
2019,09,16,15,06,8.10
2019,09,16,15,07,11.30
2019,09,16,15,08,8.10
2019,09,16,15,09,6.40
2019,09,16,15,10,8.10
2019,09,16,15,11,11.30
2019,09,16,15,12,8.10
2019,09,16,15,13,6.40
2019,09,16,15,14,8.10
2019,09,16,15,15,6.40
2019,09,16,15,16,6.40
2019,09,16,15,17,6.40
2019,09,16,15,18,6.40
2019,09,16,15,19,6.40
2019,09,16,15,20,8.10
2019,09,16,15,21,8.10
2019,09,16,15,22,8.10
2019,09,16,15,23,6.40
2019,09,16,15,24,9.60
2019,09,16,15,25,6.40
2019,09,16,15,26,6.40
2019,09,16,15,27,9.60
2019,09,16,15,28,11.30
2019,09,16,15,29,11.30
2019,09,16,15,30,11.30
2019,09,16,15,31,8.10
2019,09,16,15,32,8.10
2019,09,16,15,33,8.10
2019,09,16,15,34,8.10
2019,09,16,15,35,6.40
2019,09,16,15,36,6.40
2019,09,16,15,37,8.10
2019,09,16,15,38,6.40
2019,09,16,15,39,6.40
2019,09,16,15,40,6.40
2019,09,16,15,41,6.40
2019,09,16,15,42,6.40
2019,09,16,15,43,6.40
2019,09,16,15,44,6.40
2019,09,16,15,45,6.40
2019,09,16,15,46,6.40
2019,09,16,15,47,6.40
2019,09,16,15,48,11.30
2019,09,16,15,49,12.90
2019,09,16,15,50,12.90
2019,09,16,15,51,11.30
2019,09,16,15,52,11.30
2019,09,16,15,53,11.30
2019,09,16,15,54,11.30
2019,09,16,15,55,11.30
2019,09,16,15,56,11.30
2019,09,16,15,57,11.30
2019,09,16,15,58,11.30
2019,09,16,15,59,11.30
2019,09,16,16,00,8.10
2019,09,16,16,01,8.10
2019,09,16,16,02,8.10
2019,09,16,16,03,6.40
2019,09,16,16,04,6.40
2019,09,16,16,05,6.40
2019,09,16,16,06,6.40
2019,09,16,16,07,6.40
2019,09,16,16,08,9.60
2019,09,16,16,09,11.30
2019,09,16,16,10,11.30
2019,09,16,16,11,11.30
2019,09,16,16,12,12.90
2019,09,16,16,13,12.90
2019,09,16,16,14,12.90
2019,09,16,16,15,12.90
2019,09,16,16,16,12.90
2019,09,16,16,17,14.50
2019,09,16,16,18,14.50
2019,09,16,16,19,16.10
2019,09,16,16,20,14.50
2019,09,16,16,21,12.90
2019,09,16,16,22,12.90
2019,09,16,16,23,11.30
2019,09,16,16,24,11.30
2019,09,16,16,25,11.30
2019,09,16,16,26,12.90
2019,09,16,16,27,16.10
2019,09,16,16,28,16.10
2019,09,16,16,29,14.50
2019,09,16,16,30,12.90
2019,09,16,16,31,11.30
2019,09,16,16,32,12.90
2019,09,16,16,33,11.30
2019,09,16,16,34,11.30
2019,09,16,16,35,12.90
2019,09,16,16,36,12.90
2019,09,16,16,37,12.90
2019,09,16,16,38,12.90
2019,09,16,16,39,12.90
2019,09,16,16,40,12.90
2019,09,16,16,41,12.90
2019,09,16,16,42,12.90
2019,09,16,16,43,12.90
2019,09,16,16,44,14.50
2019,09,16,16,45,12.90
2019,09,16,16,46,12.90
2019,09,16,16,47,12.90
2019,09,16,16,48,12.90
2019,09,16,16,49,14.50
2019,09,16,16,50,12.90
2019,09,16,16,51,12.90
2019,09,16,16,52,11.30
2019,09,16,16,53,11.30
2019,09,16,16,54,12.90
2019,09,16,16,55,11.30
2019,09,16,16,56,11.30
2019,09,16,16,57,11.30
2019,09,16,16,58,11.30
2019,09,16,16,59,11.30
2019,09,16,17,00,11.30
2019,09,16,17,01,11.30
2019,09,16,17,02,8.10
2019,09,16,17,03,8.10
2019,09,16,17,04,6.40
2019,09,16,17,05,6.40
2019,09,16,17,06,6.40
2019,09,16,17,07,6.40
2019,09,16,17,08,6.40
2019,09,16,17,09,8.10
2019,09,16,17,10,11.30
2019,09,16,17,11,8.10
2019,09,16,17,12,8.10
2019,09,16,17,13,8.10
2019,09,16,17,14,8.10
2019,09,16,17,15,11.30
2019,09,16,17,16,11.30
2019,09,16,17,17,11.30
2019,09,16,17,18,12.90
2019,09,16,17,19,11.30
2019,09,16,17,20,11.30
2019,09,16,17,21,8.10
2019,09,16,17,22,8.10
2019,09,16,17,23,6.40
2019,09,16,17,24,6.40
2019,09,16,17,25,6.40
2019,09,16,17,26,6.40
2019,09,16,17,27,6.40
2019,09,16,17,28,4.80
2019,09,16,17,29,4.80
2019,09,16,17,30,4.80
2019,09,16,17,31,6.40
2019,09,16,17,32,8.10
2019,09,16,17,33,11.30
2019,09,16,17,34,8.10
2019,09,16,17,35,8.10
2019,09,16,17,36,8.10
2019,09,16,17,37,8.10
2019,09,16,17,38,6.40
2019,09,16,17,39,6.40
2019,09,16,17,40,6.40
2019,09,16,17,41,6.40
2019,09,16,17,42,6.40
2019,09,16,17,43,9.60
2019,09,16,17,44,9.60
2019,09,16,17,45,11.30
2019,09,16,17,46,9.60
2019,09,16,17,47,9.60
2019,09,16,17,48,9.60
2019,09,16,17,49,8.10
2019,09,16,17,50,8.10
2019,09,16,17,51,8.10
2019,09,16,17,52,8.10
2019,09,16,17,53,6.40
2019,09,16,17,54,4.80
2019,09,16,17,55,4.80
2019,09,16,17,56,4.80
2019,09,16,17,57,4.80
2019,09,16,17,58,4.80
2019,09,16,17,59,6.40
2019,09,16,18,00,6.40
2019,09,16,18,01,6.40
2019,09,16,18,02,4.80
2019,09,16,18,03,6.40
2019,09,16,18,04,6.40
2019,09,16,18,05,8.10
2019,09,16,18,06,8.10
2019,09,16,18,07,8.10
2019,09,16,18,08,8.10
2019,09,16,18,09,11.30
2019,09,16,18,10,11.30
2019,09,16,18,11,11.30
2019,09,16,18,12,8.10
2019,09,16,18,13,8.10
2019,09,16,18,14,9.60
2019,09,16,18,15,8.10
2019,09,16,18,16,8.10
2019,09,16,18,17,8.10
2019,09,16,18,18,11.30
2019,09,16,18,19,8.10
2019,09,16,18,20,6.40
2019,09,16,18,21,8.10
2019,09,16,18,22,6.40
2019,09,16,18,23,8.10
2019,09,16,18,24,8.10
2019,09,16,18,25,9.60
2019,09,16,18,26,8.10
2019,09,16,18,27,8.10
2019,09,16,18,28,6.40
2019,09,16,18,29,6.40
2019,09,16,18,30,8.10
2019,09,16,18,31,9.60
2019,09,16,18,32,8.10
2019,09,16,18,33,6.40
2019,09,16,18,34,4.80
2019,09,16,18,35,4.80
2019,09,16,18,36,4.80
2019,09,16,18,37,3.20
2019,09,16,18,38,4.80
2019,09,16,18,39,6.40
2019,09,16,18,40,9.60
2019,09,16,18,41,11.30
2019,09,16,18,42,11.30
2019,09,16,18,43,8.10
2019,09,16,18,44,6.40
2019,09,16,18,45,4.80
2019,09,16,18,46,6.40
2019,09,16,18,47,8.10
2019,09,16,18,48,9.60
2019,09,16,18,49,9.60
2019,09,16,18,50,6.40
2019,09,16,18,51,6.40
2019,09,16,18,52,6.40
2019,09,16,18,53,6.40
2019,09,16,18,54,6.40
2019,09,16,18,55,6.40
2019,09,16,18,56,6.40
2019,09,16,18,57,6.40
2019,09,16,18,58,6.40
2019,09,16,18,59,4.80
2019,09,16,19,00,4.80
2019,09,16,19,01,6.40
2019,09,16,19,02,4.80
2019,09,16,19,03,3.20
2019,09,16,19,04,3.20
2019,09,16,19,05,3.20
2019,09,16,19,06,1.60
2019,09,16,19,07,1.60
2019,09,16,19,10,3.20
2019,09,16,19,11,4.80
2019,09,16,19,12,6.40
2019,09,16,19,13,9.60
2019,09,16,19,14,11.30
2019,09,16,19,15,9.60
2019,09,16,19,16,9.60
2019,09,16,19,17,6.40
2019,09,16,19,18,6.40
2019,09,16,19,19,6.40
2019,09,16,19,20,6.40
2019,09,16,19,21,11.30
2019,09,16,19,22,12.90
2019,09,16,19,23,12.90
2019,09,16,19,24,11.30
2019,09,16,19,25,11.30
2019,09,16,19,26,6.40
2019,09,16,19,27,6.40
2019,09,16,19,28,8.10
2019,09,16,19,29,6.40
2019,09,16,19,30,4.80
2019,09,16,19,31,4.80
2019,09,16,19,32,4.80
2019,09,16,19,33,3.20
2019,09,16,19,34,1.60
2019,09,16,19,36,1.60
2019,09,16,19,37,3.20
2019,09,16,19,38,3.20
2019,09,16,19,39,4.80
2019,09,16,19,40,6.40
2019,09,16,19,41,6.40
2019,09,16,19,42,4.80
2019,09,16,19,43,3.20
2019,09,16,19,44,4.80
2019,09,16,19,45,4.80
2019,09,16,19,46,3.20
2019,09,16,19,47,1.60
2019,09,16,19,49,1.60
2019,09,16,19,51,3.20
2019,09,16,19,52,4.80
2019,09,16,19,53,4.80
2019,09,16,19,54,6.40
2019,09,16,19,55,6.40
2019,09,16,19,56,4.80
2019,09,16,19,57,3.20
2019,09,16,19,58,4.80
2019,09,16,19,59,4.80
2019,09,16,20,00,4.80
2019,09,16,20,01,4.80
2019,09,16,20,02,4.80
2019,09,16,20,03,4.80
2019,09,16,20,04,6.40
2019,09,16,20,05,6.40
2019,09,16,20,06,6.40
2019,09,16,20,07,8.10
2019,09,16,20,08,8.10
2019,09,16,20,09,8.10
2019,09,16,20,10,6.40
2019,09,16,20,11,9.60
2019,09,16,20,12,6.40
2019,09,16,20,13,4.80
2019,09,16,20,14,3.20
2019,09,16,20,15,8.10
2019,09,16,20,16,8.10
2019,09,16,20,17,8.10
2019,09,16,20,18,6.40
2019,09,16,20,19,6.40
2019,09,16,20,20,6.40
2019,09,16,20,21,4.80
2019,09,16,20,22,4.80
2019,09,16,20,23,3.20
2019,09,16,20,24,3.20
2019,09,16,20,25,4.80
2019,09,16,20,26,4.80
2019,09,16,20,27,4.80
2019,09,16,20,28,3.20
2019,09,16,20,29,3.20
2019,09,16,20,30,1.60
2019,09,16,20,34,1.60
2019,09,16,20,35,1.60
2019,09,16,20,36,3.20
2019,09,16,20,37,3.20
2019,09,16,20,38,3.20
2019,09,16,20,39,3.20
2019,09,16,20,40,3.20
2019,09,16,20,41,3.20
2019,09,16,20,42,3.20
2019,09,16,20,43,3.20
2019,09,16,20,44,3.20
2019,09,16,20,45,1.60
2019,09,16,20,46,1.60
2019,09,16,20,50,1.60
2019,09,16,20,55,1.60
2019,09,16,20,56,1.60
2019,09,16,20,57,3.20
2019,09,16,20,58,1.60
2019,09,16,21,06,1.60
2019,09,16,21,07,1.60
2019,09,16,21,09,3.20
2019,09,16,21,10,3.20
2019,09,16,21,11,4.80
2019,09,16,21,12,4.80
2019,09,16,21,13,4.80
2019,09,16,21,14,8.10
2019,09,16,21,15,8.10
2019,09,16,21,16,3.20
2019,09,16,21,17,3.20
2019,09,16,21,18,3.20
2019,09,16,21,22,1.60
2019,09,16,21,23,1.60
2019,09,16,21,24,3.20
2019,09,16,21,25,1.60
2019,09,16,21,26,1.60
2019,09,16,21,33,1.60
2019,09,16,21,40,1.60
2019,09,16,21,41,1.60
2019,09,16,21,42,1.60
2019,09,16,21,43,3.20
2019,09,16,21,44,1.60
2019,09,16,21,45,3.20
2019,09,16,21,46,3.20
2019,09,16,21,47,1.60
2019,09,16,21,48,1.60
2019,09,16,22,12,3.20
2019,09,16,22,13,3.20
2019,09,16,22,14,3.20
2019,09,16,22,15,1.60
2019,09,16,22,16,1.60
2019,09,16,22,17,1.60
2019,09,16,23,18,3.20